Weather History for Boonville, MO

Change the Weather History Date:

Sunday, April 21, 2013

  Actual Average Record
Temperature  
Mean Temperature 57 °F -  
Max Temperature 80 °F 66 °F 90 °F (1987)
Min Temperature 46 °F 47 °F 29 °F (1966)
Degree Days  
Heating Degree Days 8    
Growing Degree Days 7 (Base 50)    
Moisture  
Dew Point 36 °F    
Average Humidity 46    
Maximum Humidity 56    
Minimum Humidity 30    
Precipitation  
Precipitation 0.00 in - - ()
Sea Level Pressure  
Sea Level Pressure 30.24 in    
Wind  
Wind Speed 12 mph (SE)    
Max Wind Speed 18 mph    
Max Gust Speed 23 mph    
Visibility 10 miles    
Events      
Averages and records for this station are not official NWS values.
T = Trace of Precipitation, MM = Missing Value Source: NWS Daily Summary

Daily Weather History Graph

Daily Weather History Graph

Search for Another Location

Airport:

Trip Planner

Search our weather history database for the weather conditions in past years. The results will help you decide how hot, cold, wet, or windy it might be!

Date:

Astronomy

Apr. 21, 2013 Rise Set
Actual Time 6:25 AM CDT 7:53 PM CDT
Civil Twilight 5:57 AM CDT 8:22 PM CDT
Nautical Twilight 5:23 AM CDT 8:55 PM CDT
Astronomical Twilight 4:48 AM CDT 9:31 PM CDT
Moon 3:41 PM CDT (4/21) 3:45 AM CDT (4/21)
Length of Visible Light 14h 24m
Length of Day
13h 28m
Waxing Gibbous, 80% of the Moon is Illuminated
Apr 21
Waxing Gibbous
Apr 25
Full
May 2
Last Quarter
May 9
New
May 17
First Quarter

Hourly Weather History & Observations

Time (CDT) Temp. Dew Point Humidity Pressure Visibility Wind Dir Wind Speed Gust Speed Precip Events Conditions
12:15 AM 47.5 °F 27.7 °F 46% 30.25 in 10.0 mi ESE 9.2 mph - N/A   Scattered Clouds
12:35 AM 47.3 °F 27.5 °F 46% 30.25 in 10.0 mi ESE 10.4 mph - N/A   Clear
12:55 AM 46.9 °F 27.5 °F 47% 30.25 in 10.0 mi ESE 10.4 mph - N/A   Clear
1:15 AM 46.9 °F 27.5 °F 47% 30.25 in 10.0 mi ESE 13.8 mph - N/A   Scattered Clouds
1:35 AM 46.6 °F 28.0 °F 49% 30.26 in 10.0 mi ESE 9.2 mph - N/A   Scattered Clouds
4:15 AM 47.1 °F 31.3 °F 54% 30.26 in 10.0 mi ESE 11.5 mph - N/A   Scattered Clouds
4:35 AM 47.1 °F 31.6 °F 55% 30.26 in 10.0 mi SE 12.7 mph 17.3 mph N/A   Scattered Clouds
4:55 AM 47.3 °F 32.0 °F 55% 30.26 in 10.0 mi SE 12.7 mph 17.3 mph N/A   Mostly Cloudy
5:15 AM 47.5 °F 31.8 °F 55% 30.27 in 10.0 mi SE 12.7 mph 18.4 mph N/A   Overcast
5:35 AM 47.3 °F 31.8 °F 55% 30.27 in 10.0 mi SE 11.5 mph - N/A   Mostly Cloudy
5:55 AM 47.5 °F 31.8 °F 55% 30.28 in 10.0 mi SE 18.4 mph 23.0 mph N/A   Scattered Clouds
6:15 AM 47.3 °F 31.8 °F 55% 30.28 in 10.0 mi SE 12.7 mph 18.4 mph N/A   Mostly Cloudy
6:35 AM 47.3 °F 32.0 °F 55% 30.29 in 10.0 mi SE 17.3 mph - N/A   Overcast
6:55 AM 47.3 °F 32.0 °F 55% 30.30 in 10.0 mi SE 13.8 mph 17.3 mph N/A   Overcast
7:15 AM 47.3 °F 32.0 °F 55% 30.31 in 10.0 mi SSE 13.8 mph - N/A   Overcast
7:35 AM 47.5 °F 32.0 °F 55% 30.31 in 10.0 mi SE 13.8 mph - N/A   Overcast
7:55 AM 47.7 °F 32.4 °F 55% 30.31 in 10.0 mi SE 13.8 mph 18.4 mph N/A   Mostly Cloudy
8:15 AM 48.4 °F 32.4 °F 54% 30.31 in 10.0 mi SE 13.8 mph - N/A   Scattered Clouds
8:35 AM 49.5 °F 32.9 °F 53% 30.31 in 10.0 mi SE 13.8 mph 19.6 mph N/A   Clear
8:55 AM 50.9 °F 34.0 °F 52% 30.31 in 10.0 mi SSE 13.8 mph - N/A   Mostly Cloudy
9:15 AM 52.0 °F 34.2 °F 51% 30.31 in 10.0 mi SSE 15.0 mph 23.0 mph N/A   Overcast
9:35 AM 52.5 °F 34.2 °F 50% 30.32 in 10.0 mi SSE 15.0 mph - N/A   Overcast
9:55 AM 53.8 °F 34.9 °F 49% 30.32 in 10.0 mi SSE 18.4 mph 21.9 mph N/A   Overcast
10:15 AM 54.9 °F 35.2 °F 48% 30.31 in 10.0 mi SE 15.0 mph - N/A   Overcast
10:35 AM 55.2 °F 36.3 °F 49% 30.31 in 10.0 mi SSE 13.8 mph - N/A   Overcast
10:55 AM 57.0 °F 37.0 °F 47% 30.31 in 10.0 mi SSE 13.8 mph 20.7 mph N/A   Overcast
11:15 AM 57.6 °F 37.4 °F 47% 30.30 in 10.0 mi SSE 11.5 mph - N/A   Scattered Clouds
11:35 AM 59.2 °F 38.8 °F 47% 30.30 in 10.0 mi SE 10.4 mph - N/A   Clear
11:55 AM 60.1 °F 39.0 °F 46% 30.30 in 10.0 mi SE 12.7 mph - N/A   Clear
12:15 PM 61.0 °F 39.2 °F 45% 30.29 in 10.0 mi SSE 10.4 mph - N/A   Scattered Clouds
12:35 PM 62.2 °F 40.1 °F 44% 30.28 in 10.0 mi SSE 11.5 mph - N/A   Scattered Clouds
12:55 PM 62.4 °F 39.0 °F 42% 30.27 in 10.0 mi SSE 13.8 mph 20.7 mph N/A   Mostly Cloudy
1:15 PM 62.6 °F 39.4 °F 42% 30.26 in 10.0 mi South 11.5 mph 16.1 mph N/A   Overcast
1:35 PM 63.3 °F 39.9 °F 42% 30.25 in 10.0 mi SSE 9.2 mph 18.4 mph N/A   Overcast
1:55 PM 64.6 °F 40.6 °F 42% 30.24 in 10.0 mi SE 15.0 mph 18.4 mph N/A   Scattered Clouds
2:15 PM 65.3 °F 40.3 °F 40% 30.23 in 10.0 mi SE 15.0 mph - N/A   Scattered Clouds
2:35 PM 66.0 °F 38.7 °F 37% 30.23 in 10.0 mi South 16.1 mph - N/A   Clear
2:55 PM 66.4 °F 38.5 °F 36% 30.22 in 10.0 mi SSE 15.0 mph 19.6 mph N/A   Clear
3:15 PM 66.2 °F 37.2 °F 34% 30.20 in 10.0 mi SSE 12.7 mph 20.7 mph N/A   Clear
3:35 PM 66.2 °F 37.2 °F 34% 30.19 in 10.0 mi SSE 11.5 mph - N/A   Clear
3:55 PM 66.0 °F 37.4 °F 35% 30.18 in 10.0 mi SSE 9.2 mph - N/A   Clear
4:15 PM 66.7 °F 37.4 °F 34% 30.18 in 10.0 mi SE 10.4 mph - N/A   Clear
4:35 PM 68.0 °F 38.7 °F 34% 30.17 in 10.0 mi SE 11.5 mph - N/A   Clear
4:55 PM 67.3 °F 37.9 °F 34% 30.16 in 10.0 mi ESE 11.5 mph - N/A   Scattered Clouds
5:15 PM 66.6 °F 37.8 °F 35% 30.16 in 10.0 mi ESE 12.7 mph - N/A   Scattered Clouds
5:35 PM 68.4 °F 38.3 °F 33% 30.16 in 10.0 mi SE 11.5 mph 17.3 mph N/A   Clear
5:55 PM 68.7 °F 36.9 °F 31% 30.15 in 10.0 mi SSE 9.2 mph 20.7 mph N/A   Clear
6:15 PM 68.0 °F 35.4 °F 30% 30.15 in 10.0 mi SSE 12.7 mph 18.4 mph N/A   Scattered Clouds
6:55 PM 66.2 °F 34.5 °F 31% 30.15 in 10.0 mi SE 9.2 mph - N/A   Clear
7:15 PM 64.8 °F 35.4 °F 34% 30.15 in 10.0 mi SSE 8.1 mph - N/A   Scattered Clouds
7:35 PM 63.1 °F 36.0 °F 36% 30.16 in 10.0 mi SSE 5.8 mph - N/A   Scattered Clouds
7:55 PM 61.2 °F 36.5 °F 40% 30.16 in 10.0 mi SSE 5.8 mph - N/A   Scattered Clouds
8:15 PM 60.1 °F 36.1 °F 41% 30.17 in 10.0 mi SE 4.6 mph - N/A   Scattered Clouds
8:35 PM 58.6 °F 36.5 °F 44% 30.17 in 10.0 mi East 8.1 mph - N/A   Mostly Cloudy
8:55 PM 58.1 °F 38.1 °F 47% 30.18 in 10.0 mi ESE 9.2 mph - N/A   Mostly Cloudy
9:15 PM 57.4 °F 38.5 °F 49% 30.18 in 10.0 mi East 8.1 mph - N/A   Clear
9:35 PM 56.8 °F 38.7 °F 51% 30.19 in 10.0 mi ESE 8.1 mph - N/A   Clear
9:55 PM 56.3 °F 39.2 °F 53% 30.19 in 10.0 mi ESE 8.1 mph - N/A   Mostly Cloudy
10:15 PM 55.4 °F 39.2 °F 54% 30.19 in 10.0 mi ESE 8.1 mph - N/A   Scattered Clouds
10:35 PM 54.7 °F 39.4 °F 56% 30.19 in 10.0 mi ESE 9.2 mph - N/A   Scattered Clouds
10:55 PM 54.5 °F 39.2 °F 56% 30.19 in 10.0 mi ESE 8.1 mph - N/A   Mostly Cloudy
11:15 PM 54.5 °F 38.7 °F 55% 30.19 in 10.0 mi ESE 9.2 mph - N/A   Scattered Clouds
11:35 PM 54.1 °F 38.1 °F 55% 30.19 in 10.0 mi ESE 9.2 mph - N/A   Clear
11:55 PM 53.4 °F 37.9 °F 56% 30.20 in 10.0 mi ESE 6.9 mph - N/A   Clear